[[{"header":{"parameterUnit":"m.s-1","parameterCategory":1,"la1":30.2992,"la2":30.254,"lo1":-89.0895,"lo2":-89.0443,"dy":0.0025,"dx":0.0025,"nx":19,"ny":19,"refTime":"2026-05-20T21:00:00:Z","depth":0,"parameterNumber":2,"parameterNumberName":"U-component_of_WINDS"},"data":[0,0,0,-1.9509,-1.9511,-1.9629,-1.9629,-1.9771,-1.9772,0,0,0,0,0,0,0,0,0,0,0,-1.9469,-1.947,-1.9509,-1.9511,-1.9629,-1.9629,-1.9771,-1.9772,0,0,0,0,0,0,0,0,0,0,0,-1.9469,-1.947,-1.9471,-1.9512,-1.9629,-1.9629,-1.977,-1.9685,0,0,0,0,0,0,0,0,0,0,-1.9572,-1.9531,-1.947,-1.9471,-1.9513,-1.9629,-1.9629,-1.9681,-1.969,-1.9714,0,-1.9734,0,-1.9755,-1.9781,-1.9781,0,0,0,-1.9515,-1.9523,-1.9559,-1.9471,-1.9514,-1.9628,-1.9577,-1.9686,-1.9697,-1.9726,-1.9736,-1.9742,-1.9758,-1.9782,-1.9782,-1.9909,-1.991,0,0,-1.9509,-1.9488,-1.9552,-1.9566,-1.9547,-1.9573,-1.958,-1.9692,-1.9702,-1.9737,-1.9745,-1.976,-1.9783,-1.9784,-1.9909,-1.991,0,0,0,-1.9488,-1.9483,-1.9517,-1.956,-1.9581,-1.9576,-1.9585,-1.9697,-1.971,-1.9747,-1.9762,-1.9783,-1.9785,-1.9909,-1.9909,-1.9909,0,0,0,-1.9484,-1.9471,-1.9513,-1.9502,-1.9579,-1.9641,-1.9587,-1.9702,-1.9715,-1.9761,-1.9783,-1.9786,-1.9908,-1.9909,-1.9908,-1.9912,0,0,0,-1.9463,-1.9468,-1.9484,-1.95,-1.955,-1.9639,-1.9659,-1.9705,-1.9724,-1.9781,-1.9787,-1.9908,-1.9909,-1.9908,-1.9911,-1.9939,0,0,0,-1.9435,-1.9482,-1.9483,-1.9542,-1.9549,-1.9639,-1.9658,-1.9727,-1.9776,-1.9784,-1.9908,-1.9909,-1.9907,-1.991,-1.9938,-1.9958,-1.9964,0,0,-1.9483,-1.9487,-1.9523,-1.9528,-1.9612,-1.9623,-1.9708,-1.9772,-1.9797,-1.987,-1.9874,-1.9909,-1.9911,-1.9939,-2.0011,-2.0016,0,0,0,-1.9531,-1.9557,-1.9584,-1.963,-1.9681,-1.9725,-1.9779,-1.9803,-1.9867,-1.9831,-1.9928,-1.993,-1.9947,-1.9957,-1.9962,-1.9977,-1.9913,-1.9913,-1.9913,-1.9568,-1.9597,-1.9659,-1.9702,-1.9747,-1.9803,-1.9841,-1.9883,-1.99,-1.9922,-1.9943,-1.9984,-1.9995,-1.9999,-2.0015,-1.9958,-1.9958,-1.9958,-1.9958,-1.9639,-1.9679,-1.9701,-1.9768,-1.9799,-1.9856,-1.9912,-1.9922,-1.9978,-1.997,-1.9987,-1.9974,-2.0003,-2.0019,-1.9958,-1.9958,-1.9958,-1.9958,-1.9958,-1.9665,-1.9689,-1.9719,-1.9788,-1.9839,-1.9882,-1.9935,-1.9962,-1.9987,-2.0004,-2.0028,-2.0029,-2.0031,-2.0014,-2.0014,-2.0014,-2.0014,-2.0014,-2.0015,-1.968,-1.9713,-1.9755,-1.9813,-1.9846,-1.9893,-1.995,-1.9984,-2.0027,-2.0042,-2.0042,-2.0056,-2.0002,-1.9986,-2.0017,-2.0016,-2.0016,-2.0016,-2.0016,-1.9739,-1.973,-1.9795,-1.9828,-1.9899,-1.9947,-1.9981,-2.0046,-2.0077,-2.0103,-2.0114,-2.007,-2.0076,-2.0072,-2.006,-2.0108,-2.0108,-2.0108,-2.0108,-1.976,-1.9766,-1.9838,-1.9889,-1.9943,-1.998,-2.0052,-2.0097,-2.0142,-2.0163,-2.016,-2.0147,-2.0142,-2.0151,-2.0146,-2.0135,-2.02,-2.02,-2.02,-1.9798,-1.981,-1.9866,-1.991,-1.9968,-2.0016,-2.0085,-2.0142,-2.0192,-2.0205,-2.018,-2.0176,-2.0154,-2.0146,-2.0156,-2.0148,-2.0128,0,0]},{"header":{"parameterUnit":"m.s-1","parameterCategory":1,"la1":30.2992,"la2":30.254,"lo1":-89.0895,"lo2":-89.0443,"dy":0.0025,"dx":0.0025,"nx":19,"ny":19,"refTime":"2026-05-20T21:00:00:Z","depth":0,"parameterNumber":3,"parameterNumberName":"V-component_of_WINDS"},"data":[0,0,0,2.9649,2.965,2.9675,2.9675,2.9721,2.9722,0,0,0,0,0,0,0,0,0,0,0,2.9649,2.965,2.9649,2.965,2.9675,2.9675,2.9721,2.9722,0,0,0,0,0,0,0,0,0,0,0,2.9649,2.965,2.9651,2.965,2.9675,2.9675,2.9721,2.9697,0,0,0,0,0,0,0,0,0,0,2.967,2.9678,2.965,2.9651,2.965,2.9675,2.9675,2.9695,2.9698,2.9715,0,2.9733,0,2.9728,2.9726,2.9726,0,0,0,2.9643,2.9676,2.9676,2.9651,2.965,2.9675,2.9662,2.9697,2.97,2.9719,2.9733,2.9735,2.9729,2.9726,2.9726,2.9847,2.9848,0,0,2.9642,2.9658,2.9673,2.9678,2.9675,2.9661,2.9663,2.9699,2.9715,2.9734,2.9736,2.973,2.9726,2.9727,2.9846,2.9847,0,0,0,2.9642,2.9658,2.9656,2.9677,2.968,2.9662,2.9664,2.9713,2.9711,2.9736,2.973,2.9727,2.9727,2.9845,2.9847,2.9906,0,0,0,2.9641,2.9658,2.9656,2.9666,2.968,2.9697,2.9678,2.9709,2.9713,2.973,2.9727,2.9728,2.9844,2.9846,2.9902,2.9931,0,0,0,2.9645,2.9658,2.9665,2.9667,2.9678,2.9696,2.9696,2.9709,2.9709,2.9726,2.9728,2.9844,2.9846,2.9899,2.9926,2.9969,0,0,0,2.9654,2.9716,2.9666,2.9733,2.9678,2.9733,2.9696,2.9735,2.9756,2.9727,2.9844,2.9847,2.9898,2.9922,2.9966,3.0009,3.0028,0,0,2.9741,2.9727,2.9766,2.9721,2.9789,2.9728,2.9804,2.9807,2.9793,2.983,2.9833,2.9904,2.9926,2.9968,3.013,3.0145,0,0,0,2.9799,2.9827,2.9841,2.9863,2.9867,2.9874,2.9864,2.9865,2.9896,2.9815,2.993,2.9942,2.9967,2.9987,3.0,3.002,2.9856,2.9856,2.9856,2.9947,2.9927,2.9989,2.9972,2.9994,2.9983,2.9999,2.9999,2.9971,2.9999,3.001,3.011,3.0134,3.0144,3.0165,3.003,3.003,3.0031,3.0031,3.0074,3.0111,3.0074,3.0122,3.01,3.0139,3.0132,3.0112,3.0146,3.01,3.012,3.0073,3.0162,3.0179,3.0035,3.0034,3.0034,3.0033,3.0033,3.0169,3.0184,3.0185,3.0215,3.024,3.022,3.0255,3.0234,3.0214,3.0234,3.0244,3.0243,3.024,3.024,3.024,3.0241,3.0241,3.0241,3.0241,3.0268,3.0268,3.03,3.0311,3.0323,3.0335,3.0326,3.0337,3.0344,3.0325,3.0325,3.0296,3.0174,3.0144,3.0247,3.0246,3.0245,3.0245,3.0244,3.0406,3.0372,3.0422,3.0434,3.0446,3.0473,3.0445,3.0469,3.0475,3.0493,3.0459,3.0372,3.0356,3.0345,3.0321,3.0463,3.0463,3.0463,3.0463,3.0487,3.0477,3.0524,3.0545,3.0562,3.0543,3.0601,3.0595,3.0583,3.0585,3.0561,3.0527,3.0517,3.0506,3.0492,3.0469,3.0646,3.0646,3.0646,3.0572,3.0563,3.0616,3.0605,3.0613,3.062,3.0674,3.07,3.0679,3.0653,3.0587,3.0579,3.0523,3.0506,3.0479,3.0457,3.0414,0,0]}]]